Location: Borea
(45.6167°N, 23.0167°E)
Time: 12:04:24
(UTC+00:00)

Cosmos 1869 - Pass Details

Date: 03 February 2023
Orbit: 510 x 550 km, 82.5° (Epoch: 20 March)

Event Time Altitude Azimuth Distance (km) Brightness Sun altitude
Rises 17:26:49 0° 349° (N) 2,661 6.9 -19.5°
Reaches altitude 10° 17:28:58 10° 347° (NNW) 1,775 6.0 -19.8°
Maximum altitude 17:32:50 72° 264° (W) 563 3.4 -20.5°
Drops below altitude 10° 17:36:45 10° 180° (S) 1,786 5.9 -21.2°
Sets 17:38:54 0° 178° (S) 2,679 6.8 -21.6°
